Location: ??????
(41.3164°N, 22.6615°E)
Time: 09:14:22
(UTC+00:00)

CAS-4A - Visible Passes

Search period start: 04 July 2022 00:00
Search period end: 14 July 2022 00:00
Orbit: 523 x 536 km, 43.0° (Epoch: 03 July)

Date Brightness Start Highest point End Pass type
(mag) Time Alt. Az. Time Alt. Az. Time Alt. Az.
04 Jul ? 01:24:13 12° W 01:27:58 68° N 01:32:01 10° E visible
04 Jul ? 23:36:46 39° E 23:36:46 39° E 23:39:24 10° ENE visible
05 Jul ? 01:11:57 13° W 01:15:28 67° N 01:19:30 10° E visible
05 Jul ? 23:24:31 34° ENE 23:24:31 34° ENE 23:26:52 10° ENE visible
06 Jul ? 00:59:41 15° W 01:02:57 68° N 01:06:59 10° E visible
06 Jul ? 23:12:19 28° ENE 23:12:19 28° ENE 23:14:20 10° ENE visible
07 Jul ? 00:47:31 18° WNW 00:50:26 69° N 00:54:28 10° E visible
07 Jul ? 02:26:28 10° WNW 02:30:27 58° SSW 02:34:26 10° ESE visible
07 Jul ? 23:00:16 22° ENE 23:00:16 22° ENE 23:01:48 10° ENE visible
08 Jul ? 00:35:29 23° WNW 00:37:55 72° N 00:41:57 10° E visible
08 Jul ? 02:13:58 10° W 02:17:52 50° SSW 02:21:47 10° SE visible
08 Jul ? 22:48:28 15° ENE 22:48:28 15° ENE 22:49:15 10° ENE visible
09 Jul ? 00:23:42 33° WNW 00:25:23 76° N 00:29:25 10° E visible
09 Jul ? 02:01:27 10° W 02:05:17 42° SSW 02:09:06 10° SE visible
10 Jul ? 00:12:28 71° NW 00:12:51 82° NNE 00:16:53 10° E visible
10 Jul ? 01:48:58 10° W 01:52:40 36° SSW 01:56:23 10° SE visible
10 Jul ? 18:58:08 10° S 19:00:38 16° SE 19:02:40 12° ESE visible
10 Jul ? 20:36:10 10° WSW 20:38:04 26° SW 20:38:04 26° SW visible
11 Jul ? 00:02:14 30° ESE 00:02:14 30° ESE 00:04:21 10° ESE visible
11 Jul ? 01:37:36 16° W 01:40:03 30° SSW 01:43:36 10° SSE visible
11 Jul ? 18:45:03 10° SSW 18:47:59 20° SE 18:50:55 10° E visible
11 Jul ? 20:23:33 10° WSW 20:27:33 71° SSE 20:28:16 55° E visible
12 Jul ? 01:28:40 21° S 01:28:40 21° S 01:30:45 10° SSE visible
12 Jul ? 18:32:06 10° SSW 18:35:20 24° SSE 18:38:34 10° E visible
12 Jul ? 20:10:58 10° WSW 20:14:59 80° SSE 20:17:18 24° ENE visible
12 Jul ? 21:51:05 10° W 21:52:33 21° WNW 21:52:33 21° WNW visible
13 Jul ? 19:58:23 10° WSW 20:02:25 89° SSE 20:05:39 15° ENE visible
13 Jul ? 21:38:32 10° W 21:40:52 33° WNW 21:40:52 33° WNW visible
